• Unsere Gaststätte hat ab dem 20.06.2020 wieder für Sie geöffenet!

    Unsere Gaststätte hat ab dem 20.06.2020 wieder für Sie geöffenet!

    Wir freuen uns auf Ihren Besuch!

  • Frühling ist Ausbildungsbeginn !!

    Frühling ist Ausbildungsbeginn !!

    Du wolltest schon immer mal Pilot werden ?
    Jetzt ist der richtige Zeitpunkt!
    Die Ausbildung zum Segelflugpiloten findet wieder statt.
    Ab 14 Jahre geht es bereits los.
    Auch die Ausbildung zum

    zum Bericht
  • GPS Triangle WM

    GPS Triangle WM

    Die GPS WM wurde aufgrund der Corona Beschränkungen auf 2021 verschoben.

    zum Bericht
  • 1
  • 1

WebCam

  
Kamera Halle
Kamera Vorfeld

GPS Triangle WM Sports Class

AeroClub Göppingen-Salach e.V.
Ausrichter der Modellflug
GPS Triangle-WM 2020

 

Aufgrund der aktuellen Corona Situation ist die WM auf den 15.8.-20.8.2021 verschoben
Wetter EDDS

METAR

EDDS 260120Z 29005KT CAVOK 11/08 Q1004 =
EDDS 252300Z 2600/2624 VRB03KT 9999 SCT045 TEMPO 2602/2615 24005KT RA BKN014


TAF

EDDS 252300Z 2600/2624 VRB03KT 9999 SCT045 TEMPO 2602/2615 24005KT RA BKN014 =


SR/SS

05:59 / 16:11 UTC
(EDSO 26-10-2020)